CAPE
0 0 0 0 0 0 0 0 0 0 0 0 0 0 0 0 464 504 844 1287 981 1071 1165 1263 1384 1640 1755 1850 1775 1787 1851 1911 1966 1952 1925 1935 1979 2132 2147 2124 2314 2458 2330 1945 1997 1947 1741 1417 1356
0 0 0 0 0 0 0 0 0 0 0 0 0 0 0 0 0 359 640 1494 1151 1154 1186 1170 1367 1638 1802 1877 1923 2008 2170 2055 2006 2057 2078 2079 2113 2212 2300 2144 2058 2337 2374 2040 2026 1934 1704 1368 1266
0 0 0 0 0 0 0 0 0 0 0 0 0 0 0 0 0 231 367 1583 1331 1203 1214 1234 1349 1591 1780 1875 1975 2091 2112 1926 1894 1964 2188 2201 2214 2322 2393 2047 1956 2285 2499 2113 2148 1836 1580 1297 937
0 0 0 0 0 0 0 0 0 0 0 0 0 0 0 0 7 62 1138 1688 1267 1387 1247 1149 1274 1504 1791 1983 2102 2118 1986 1846 1793 1877 2171 2316 2345 2411 2306 2027 2055 2304 2483 2446 2268 1694 1255 878 682
0 0 0 0 0 0 0 0 0 0 0 0 0 0 0 0 4 205 1585 1728 1467 1432 1172 988 1167 1415 1750 2100 2217 2146 1993 1873 1806 1891 2053 2236 2337 2279 2035 1941 2061 2186 2339 2415 2058 1445 874 593 526
0 0 0 0 0 0 0 0 0 0 0 0 0 0 0 0 0 30 1735 1832 1701 1495 1171 1062 1066 1339 1635 1975 2070 2059 1993 1911 1830 1853 1968 2155 2181 2034 1810 1766 1881 2027 2147 1969 1444 923 676 367 238
0 0 0 0 0 0 0 0 0 0 0 0 0 0 0 0 0 0 881 1966 1784 1524 1199 1178 1180 1279 1465 1764 1923 1954 1922 1885 1836 1840 1896 2011 2003 1880 1684 1656 1757 1932 2046 1838 1316 649 459 390 321
0 0 0 0 0 0 0 0 0 0 0 0 0 0 0 0 0 0 135 684 2049 1600 1302 1157 1159 1193 1139 1254 1635 1798 1861 1854 1793 1801 1841 1923 1869 1747 1560 1501 1631 1835 1921 1715 1214 658 408 364 274
0 0 0 0 0 0 0 0 0 0 0 0 0 0 0 0 0 0 0 0 0 0 82 1137 1163 1085 962 984 1146 1462 1641 1692 1615 1674 1717 1605 1437 1463 1428 1334 1450 1694 1751 1582 1120 687 487 384 251
0 0 0 0 0 0 0 0 0 0 0 0 0 0 0 0 0 0 0 0 0 0 0 0 170 1302 964 1280 1125 1015 1045 1186 1272 1424 1442 1295 1312 1201 1342 1250 1288 1527 1556 1384 998 654 487 370 81
0 0 0 0 0 0 0 0 0 0 0 0 0 0 0 0 0 0 0 0 0 0 0 0 0 0 0 215 1087 824 845 892 953 1181 1111 1155 1336 1149 1099 932 929 1088 1307 1001 750 509 280 210 11
0 0 0 0 0 0 0 0 0 0 0 0 0 0 0 0 0 0 0 0 0 0 0 0 0 0 0 0 11 851 973 924 882 922 1172 1209 1179 992 1064 826 748 1005 1067 661 462 256 145 109 48
0 0 0 0 0 0 0 0 0 0 0 0 0 0 0 0 0 0 0 0 0 0 0 0 0 0 0 0 0 0 196 955 933 966 1036 1306 1178 1174 961 880 809 974 894 624 362 235 174 120 58
0 0 0 0 0 0 0 0 0 0 0 0 0 0 0 0 0 0 0 0 0 0 0 0 0 0 0 0 0 0 1 0 796 1133 1208 1245 1407 1174 1111 962 954 942 847 721 404 317 234 159 115
0 0 0 0 0 0 0 0 0 0 0 0 0 0 0 0 0 0 0 0 0 0 0 0 0 0 0 0 0 0 0 0 3 445 1256 1306 1586 1537 1338 1385 1256 1034 839 728 522 343 334 278 132
0 0 0 0 0 0 0 0 0 0 0 0 0 0 0 0 0 0 0 0 0 0 0 0 0 0 0 0 0 0 0 0 0 0 9 1063 1470 1758 1633 1368 1460 1339 985 717 616 566 415 457 303
0 0 0 0 0 0 0 0 0 0 0 0 0 0 0 0 0 0 0 0 0 0 0 0 0 0 0 0 0 0 0 0 0 0 1 16 531 1251 1576 1628 1577 1464 1076 695 741 521 534 526 569
0 0 0 0 0 0 0 0 0 0 0 0 0 0 0 0 0 0 0 0 0 0 0 0 0 0 0 0 0 0 0 0 0 0 1 0 0 4 80 1089 1679 1601 1138 783 624 658 380 617 646
0 0 0 0 0 0 0 0 0 0 0 0 0 0 0 0 0 0 0 0 0 0 0 0 0 0 0 0 0 0 0 0 0 0 0 0 0 0 0 0 322 1665 1656 1317 845 537 496 493 623
0 0 0 0 0 0 0 0 0 0 0 0 0 0 0 0 0 0 0 0 0 0 0 0 0 0 0 0 0 0 0 0 0 0 0 0 0 0 1 0 0 0 1133 1481 1216 933 601 418 356
0 0 0 0 0 0 0 0 0 0 0 0 0 0 0 0 0 0 0 0 0 0 0 0 0 0 0 0 0 0 0 0 0 0 0 0 0 1 4 8 9 5 12 991 1260 1048 753 655 394
0 0 0 0 0 0 0 0 0 0 0 0 0 0 0 0 0 0 0 0 0 0 0 0 0 0 0 0 0 0 1 2 4 3 1 0 0 3 5 7 9 13 4 159 967 1130 887 612 459
0 0 0 0 0 0 0 0 0 0 0 0 0 0 0 0 0 0 0 0 0 0 0 0 0 0 0 0 0 2 0 1 0 4 4 1 1 2 8 4 2 3 14 22 505 773 722 546 279
0 0 0 0 0 0 0 0 0 0 0 0 0 0 0 0 0 0 0 0 0 0 0 0 0 0 0 0 0 0 2 1 2 0 6 8 1 4 12 8 8 10 8 10 160 709 610 425 472
0 0 0 0 0 0 0 0 0 0 0 0 0 0 0 0 0 0 0 0 0 0 0 0 0 0 0 0 0 0 1 3 3 0 12 13 11 12 10 9 7 10 0 4 25 535 615 527 362
0 0 0 0 0 0 0 0 0 0 0 0 0 0 0 0 0 0 0 0 0 0 0 0 0 0 0 0 0 0 2 4 4 0 7 8 17 15 13 10 8 7 10 4 27 386 751 463 305
0 0 0 0 0 0 0 0 0 0 0 0 0 0 0 0 0 0 0 0 0 0 0 0 0 0 0 0 0 0 0 6 13 2 9 0 12 20 10 10 10 5 4 3 83 358 486 455 336
0 0 0 0 0 0 0 0 0 0 0 0 0 0 0 0 0 0 0 0 0 0 0 0 0 0 0 0 0 0 0 3 7 11 15 1 8 12 9 13 8 9 4 5 69 158 168 407 311
0 0 0 0 0 0 0 0 0 0 0 0 0 0 0 0 0 0 0 0 0 0 0 0 0 0 0 0 0 0 0 4 8 14 15 7 12 13 12 15 17 12 4 6 4 3 8 358 55
0 0 0 0 0 0 0 0 0 0 0 0 0 0 0 0 0 0 0 0 0 0 0 0 0 0 0 0 0 0 0 0 7 4 12 18 13 12 11 19 31 15 5 6 8 5 5 5 0
CIN
-0 -0 -0 -0 -0 -0 -0 -0 -0 -0 -0 -0 -0 -0 -0 -0 -202 -162 -292 -368 -528 -518 -465 -411 -369 -327 -280 -240 -218 -210 -179 -147 -118 -101 -90 -67 -38 -14 -7 -2 -1 -0 -0 -0 -0 -0 -2 -10 -14
-0 -0 -0 -0 -0 -0 -0 -0 -0 -0 -0 -0 -0 -0 -0 -0 -31 -266 -237 -337 -440 -490 -465 -463 -387 -312 -253 -233 -209 -174 -129 -129 -117 -96 -79 -61 -48 -23 -4 -6 -4 -1 -0 -0 -0 -0 -2 -9 -14
-0 -0 -0 -0 -0 -0 -0 -0 -0 -0 -0 -0 -0 -0 -0 -0 -0 -281 -362 -338 -405 -441 -460 -453 -392 -309 -262 -241 -221 -172 -145 -168 -147 -106 -69 -55 -37 -15 -6 -22 -23 -2 -0 -0 -0 -0 -7 -13 -47
-0 -0 -0 -0 -0 -0 -0 -0 -0 -0 -0 -0 -0 -0 -0 -0 -410 -373 -231 -292 -369 -386 -438 -482 -420 -345 -275 -232 -209 -187 -191 -191 -183 -121 -65 -44 -28 -12 -2 -8 -4 -1 -0 -0 -0 -1 -25 -54 -95
-0 -0 -0 -0 -0 -0 -0 -0 -0 -0 -0 -0 -0 -0 -0 -0 -395 -400 -173 -245 -335 -391 -466 -526 -462 -369 -297 -224 -201 -198 -200 -202 -182 -128 -68 -42 -23 -14 -21 -20 -4 -2 -1 -3 -0 -11 -57 -110 -122
-0 -0 -0 -0 -0 -0 -0 -0 -0 -0 -0 -0 -0 -0 -0 -0 -0 -174 -206 -224 -310 -398 -495 -490 -466 -384 -332 -261 -231 -200 -191 -195 -177 -136 -90 -39 -27 -26 -33 -26 -18 -8 -3 -8 -28 -68 -80 -142 -189
-0 -0 -0 -0 -0 -0 -0 -0 -0 -0 -0 -0 -0 -0 -0 -0 -0 -0 -290 -241 -292 -371 -452 -429 -415 -391 -347 -281 -236 -211 -191 -183 -186 -158 -114 -59 -41 -38 -40 -34 -26 -12 -3 -8 -35 -102 -117 -107 -103
-0 -0 -0 -0 -0 -0 -0 -0 -0 -0 -0 -0 -0 -0 -0 -0 -0 -0 -393 -236 -135 -215 -312 -387 -393 -388 -402 -371 -274 -229 -208 -196 -194 -183 -143 -89 -59 -55 -64 -59 -43 -21 -11 -20 -49 -99 -116 -103 -93
-0 -0 -0 -0 -0 -0 -0 -0 -0 -0 -0 -0 -0 -0 -0 -0 -0 -0 -0 -0 -0 -0 -353 -211 -233 -338 -390 -380 -337 -264 -217 -191 -190 -168 -148 -153 -170 -135 -104 -93 -70 -45 -36 -37 -73 -123 -135 -127 -124
-0 -0 -0 -0 -0 -0 -0 -0 -0 -0 -0 -0 -0 -0 -0 -0 -0 -0 -0 -0 -0 -0 -0 -0 -296 -115 -215 -206 -286 -318 -301 -253 -226 -182 -188 -228 -209 -198 -145 -146 -114 -66 -56 -60 -99 -143 -157 -158 -208
-0 -0 -0 -0 -0 -0 -0 -0 -0 -0 -0 -0 -0 -0 -0 -0 -0 -0 -0 -0 -0 -0 -0 -0 -0 -0 -0 -431 -64 -277 -325 -306 -259 -195 -195 -189 -179 -228 -198 -215 -206 -152 -93 -139 -180 -201 -233 -229 -94
-0 -0 -0 -0 -0 -0 -0 -0 -0 -0 -0 -0 -0 -0 -0 -0 -0 -0 -0 -0 -0 -0 -0 -0 -0 -0 -0 -0 -133 -70 -74 -211 -244 -243 -172 -155 -172 -235 -239 -256 -261 -190 -166 -230 -260 -307 -340 -316 -323
-0 -0 -0 -0 -0 -0 -0 -0 -0 -0 -0 -0 -0 -0 -0 -0 -0 -0 -0 -0 -0 -0 -0 -0 -0 -0 -0 -0 -0 -0 -242 -22 -101 -159 -161 -121 -143 -142 -196 -251 -250 -202 -207 -258 -305 -329 -337 -352 -365
-0 -0 -0 -0 -0 -0 -0 -0 -0 -0 -0 -0 -0 -0 -0 -0 -0 -0 -0 -0 -0 -0 -0 -0 -0 -0 -0 -0 -0 -0 -1 -0 -34 -41 -82 -90 -99 -163 -147 -187 -223 -206 -207 -227 -291 -304 -322 -339 -344
-0 -0 -0 -0 -0 -0 -0 -0 -0 -0 -0 -0 -0 -0 -0 -0 -0 -0 -0 -0 -0 -0 -0 -0 -0 -0 -0 -0 -0 -0 -0 -0 -0 -109 -25 -63 -61 -87 -86 -75 -114 -214 -236 -202 -242 -287 -266 -280 -325
-0 -0 -0 -0 -0 -0 -0 -0 -0 -0 -0 -0 -0 -0 -0 -0 -0 -0 -0 -0 -0 -0 -0 -0 -0 -0 -0 -0 -0 -0 -0 -0 -0 -0 -231 -13 -33 -37 -48 -64 -61 -92 -162 -218 -205 -219 -208 -198 -246
-0 -0 -0 -0 -0 -0 -0 -0 -0 -0 -0 -0 -0 -0 -0 -0 -0 -0 -0 -0 -0 -0 -0 -0 -0 -0 -0 -0 -0 -0 -0 -0 -0 -0 -1 -23 -81 -23 -30 -27 -49 -81 -112 -162 -153 -201 -209 -191 -164
-0 -0 -0 -0 -0 -0 -0 -0 -0 -0 -0 -0 -0 -0 -0 -0 -0 -0 -0 -0 -0 -0 -0 -0 -0 -0 -0 -0 -0 -0 -0 -0 -0 -0 -1 -0 -0 -0 -27 -5 -21 -47 -84 -117 -148 -122 -178 -157 -188
-0 -0 -0 -0 -0 -0 -0 -0 -0 -0 -0 -0 -0 -0 -0 -0 -0 -0 -0 -0 -0 -0 -0 -0 -0 -0 -0 -0 -0 -0 -0 -0 -0 -0 -0 -0 -0 -0 -0 -0 -72 -8 -28 -37 -138 -149 -114 -132 -127
-0 -0 -0 -0 -0 -0 -0 -0 -0 -0 -0 -0 -0 -0 -0 -0 -0 -0 -0 -0 -0 -0 -0 -0 -0 -0 -0 -0 -0 -0 -0 -0 -0 -0 -0 -0 -0 -0 -0 -0 -0 -0 -6 -12 -47 -89 -82 -114 -119
-0 -0 -0 -0 -0 -0 -0 -0 -0 -0 -0 -0 -0 -0 -0 -0 -0 -0 -0 -0 -0 -0 -0 -0 -0 -0 -0 -0 -0 -0 -0 -0 -0 -0 -0 -0 -0 -0 -1 -0 -0 -1 -10 -34 -8 -36 -77 -57 -108
-0 -0 -0 -0 -0 -0 -0 -0 -0 -0 -0 -0 -0 -0 -0 -0 -0 -0 -0 -0 -0 -0 -0 -0 -0 -0 -0 -0 -0 -0 -0 -0 -0 -0 -0 -0 -0 -0 -0 -0 -1 -1 -2 -93 -8 -10 -28 -62 -44
-0 -0 -0 -0 -0 -0 -0 -0 -0 -0 -0 -0 -0 -0 -0 -0 -0 -0 -0 -0 -0 -0 -0 -0 -0 -0 -0 -0 -0 -0 -0 -0 -0 -0 -0 -0 -0 -0 -0 -0 -1 -1 -0 -35 -26 -12 -25 -17 -4
-0 -0 -0 -0 -0 -0 -0 -0 -0 -0 -0 -0 -0 -0 -0 -0 -0 -0 -0 -0 -0 -0 -0 -0 -0 -0 -0 -0 -0 -0 -0 -0 -0 -0 -0 -0 -0 -0 -0 -0 -0 -0 -0 -0 -74 -8 -36 -22 -25
-0 -0 -0 -0 -0 -0 -0 -0 -0 -0 -0 -0 -0 -0 -0 -0 -0 -0 -0 -0 -0 -0 -0 -0 -0 -0 -0 -0 -0 -0 -0 -0 -0 -0 -0 -0 -0 -0 -0 -0 -0 -0 -0 -0 -122 -19 -62 -44 -44
-0 -0 -0 -0 -0 -0 -0 -0 -0 -0 -0 -0 -0 -0 -0 -0 -0 -0 -0 -0 -0 -0 -0 -0 -0 -0 -0 -0 -0 -0 -0 -0 -0 -0 -0 -0 -0 -0 -0 -0 -0 -0 -0 -0 -91 -37 -34 -110 -98
-0 -0 -0 -0 -0 -0 -0 -0 -0 -0 -0 -0 -0 -0 -0 -0 -0 -0 -0 -0 -0 -0 -0 -0 -0 -0 -0 -0 -0 -0 -0 -0 -0 -0 -0 -0 -0 -0 -0 -0 -0 -0 -0 -0 -46 -43 -79 -147 -112
-0 -0 -0 -0 -0 -0 -0 -0 -0 -0 -0 -0 -0 -0 -0 -0 -0 -0 -0 -0 -0 -0 -0 -0 -0 -0 -0 -0 -0 -0 -0 -0 -0 -0 -0 -0 -0 -0 -0 -0 -0 -0 -0 -0 -66 -79 -157 -112 -147
-0 -0 -0 -0 -0 -0 -0 -0 -0 -0 -0 -0 -0 -0 -0 -0 -0 -0 -0 -0 -0 -0 -0 -0 -0 -0 -0 -0 -0 -0 -0 -0 -0 -0 -0 -0 -0 -0 -0 -0 -0 -0 -0 -0 -0 -52 -59 -87 -169
-0 -0 -0 -0 -0 -0 -0 -0 -0 -0 -0 -0 -0 -0 -0 -0 -0 -0 -0 -0 -0 -0 -0 -0 -0 -0 -0 -0 -0 -0 -0 -0 -0 -0 -0 -0 -0 -0 -0 -0 -0 -0 -0 -0 -0 -0 -0 -34 -0
Wind_Speed
5 2 2 4 6 6 3 6 3 3 2 3 3 15 11 4 5 4 2 3 10 10 7 7 7 10 10 11 10 11 12 13 13 13 13 12 10 10 10 9 8 8 10 10 10 11 12 12 12
3 2 5 2 6 4 6 5 1 1 3 2 9 6 7 5 3 4 2 4 8 10 6 7 9 9 9 10 10 10 11 11 11 12 12 12 11 10 10 10 9 8 9 10 10 10 10 11 10
2 1 4 5 4 2 1 4 5 2 6 4 5 6 4 2 4 4 4 8 10 8 7 8 9 9 10 10 11 10 10 10 10 11 12 12 11 10 10 10 10 9 9 9 10 9 8 9 9
3 5 5 5 2 8 7 6 4 2 7 8 5 8 5 4 3 5 5 8 8 7 7 10 10 10 10 9 10 11 10 10 9 10 10 11 11 10 9 8 8 7 7 7 9 8 7 8 9
4 4 4 3 5 7 5 6 1 4 5 5 6 3 5 4 4 7 9 9 11 7 5 5 12 12 10 9 10 10 10 10 10 9 9 9 10 10 10 10 9 7 7 9 8 7 7 8 8
5 3 5 1 4 7 4 7 14 10 7 2 10 6 4 5 5 1 5 9 8 10 8 6 8 9 10 9 8 7 8 9 10 9 9 9 9 9 9 9 9 9 9 10 9 9 9 9 9
5 4 3 1 3 6 7 4 6 6 8 7 3 6 2 6 5 4 7 5 5 6 7 5 5 7 8 7 6 6 6 7 9 10 9 9 9 9 9 9 9 9 9 8 8 9 9 8 9
5 4 1 0 3 1 7 4 2 7 3 4 4 4 2 4 4 9 10 10 8 7 3 4 3 4 5 5 7 6 5 6 8 10 10 8 7 8 9 10 9 9 9 9 9 9 8 8 8
3 4 1 3 5 2 5 8 10 3 8 9 4 4 1 5 12 20 17 21 19 16 16 10 7 3 4 4 4 5 4 4 4 5 8 6 4 6 7 7 10 11 11 10 10 10 10 9 8
4 4 6 6 2 3 2 5 4 6 8 5 4 6 7 16 21 22 19 17 20 20 20 18 15 8 4 3 5 5 4 3 3 4 4 6 5 5 7 8 11 11 11 11 10 11 10 8 4
2 4 4 2 3 6 4 1 1 2 4 1 4 2 11 22 21 20 18 15 14 13 16 19 17 17 16 12 6 2 3 4 3 5 4 4 4 4 4 3 5 5 9 5 7 6 4 6 4
4 7 5 4 3 4 3 4 1 4 4 7 5 7 20 21 18 16 16 15 16 18 17 17 17 16 17 11 10 8 6 3 4 6 6 4 4 5 6 4 5 6 5 6 6 5 7 7 7
4 4 7 6 2 0 2 1 4 2 7 7 14 23 19 18 17 15 13 14 14 18 17 17 18 18 16 13 11 10 10 5 5 5 7 7 5 5 4 6 6 6 6 7 6 6 6 7 8
5 4 5 5 6 4 3 1 5 3 6 8 22 20 19 18 14 14 16 16 17 15 16 16 18 18 16 14 15 12 10 12 8 6 8 10 8 7 6 6 7 7 6 7 7 7 8 8 7
5 6 8 4 3 3 2 5 4 8 5 20 21 18 17 16 14 16 12 14 12 13 13 18 17 18 17 15 14 11 11 12 10 10 8 10 12 11 10 6 7 8 8 9 7 7 6 6 6
3 3 3 7 6 4 6 3 3 5 4 18 17 15 14 15 15 12 12 12 11 12 16 15 15 17 17 15 12 10 10 10 11 12 13 14 11 12 9 8 8 8 8 9 8 8 7 7 7
3 3 4 7 3 5 4 5 5 3 10 14 12 12 12 13 14 12 12 13 15 17 18 18 16 17 15 14 13 11 12 10 10 10 11 16 15 11 9 8 9 8 9 9 9 8 10 9 9
3 3 1 2 2 4 3 4 2 5 19 12 9 9 11 12 11 10 11 12 15 16 15 16 13 16 15 11 10 10 10 11 9 10 10 16 14 18 15 11 11 9 7 8 8 11 10 10 11
5 1 1 3 2 5 3 3 3 7 14 12 8 8 9 10 6 8 10 13 15 15 14 15 16 16 12 12 13 11 13 13 12 12 15 17 14 16 15 11 15 12 12 13 12 11 12 11 10
1 1 5 4 4 4 2 2 9 6 6 7 9 7 7 6 6 10 11 12 12 10 11 13 14 15 12 9 9 6 10 8 12 11 15 15 16 17 14 14 13 14 14 15 15 14 11 10 9
4 3 2 2 4 2 2 3 5 6 11 9 7 6 6 6 7 9 11 9 7 11 12 11 11 11 11 12 9 9 7 7 9 13 13 15 17 15 17 16 14 15 13 15 16 16 18 14 11
2 3 3 2 5 4 4 5 1 9 9 8 5 5 6 7 7 8 6 7 9 8 6 6 9 10 9 11 9 13 9 12 11 12 14 16 17 16 17 17 15 15 12 15 17 14 16 14 13
3 2 2 1 2 2 4 1 5 9 6 5 4 5 6 5 6 7 9 9 7 9 7 7 7 9 10 11 10 10 13 10 11 11 17 20 16 17 18 18 18 18 14 15 19 16 15 13 16
5 3 1 4 3 3 11 9 3 4 8 6 5 4 4 6 7 7 6 7 7 4 4 4 5 8 9 11 11 13 14 15 14 15 12 12 15 14 16 18 18 18 15 17 15 17 18 19 13
4 6 3 4 0 8 3 5 1 3 7 9 7 3 4 4 5 5 6 6 6 7 7 8 11 12 12 12 14 14 15 14 14 16 12 16 13 14 16 20 19 17 19 19 17 17 15 14 11
6 8 7 7 4 4 3 5 5 4 7 7 6 5 4 4 4 4 5 5 3 4 5 6 7 11 10 10 13 11 13 9 11 14 12 11 13 13 18 18 20 21 21 20 18 13 12 9 9
4 4 6 4 2 1 3 3 3 4 5 5 5 4 4 2 3 6 5 3 3 5 5 6 7 8 8 9 11 12 13 14 12 17 13 12 14 12 17 18 20 21 21 20 18 13 10 8 9
5 4 4 2 3 5 5 6 4 12 9 6 6 6 3 4 5 5 4 3 3 3 5 5 7 8 8 8 7 10 12 12 14 13 15 18 15 15 17 17 18 18 19 20 16 10 7 8 6
3 1 1 4 5 5 2 5 4 13 11 9 7 6 5 5 5 4 3 5 5 3 3 3 5 6 7 6 7 8 10 14 13 11 14 16 17 17 17 17 16 13 16 20 20 9 8 11 8
6 8 7 7 6 3 4 6 2 7 9 7 6 6 5 5 4 4 3 1 1 3 5 5 6 6 6 6 7 8 9 11 14 14 14 16 16 16 15 16 14 12 15 18 17 18 19 2 8
Wind_Direction
326 330 88 44 52 63 274 269 268 300 345 304 17 88 108 87 87 153 47 80 114 119 127 127 126 121 127 132 142 140 139 137 134 129 126 125 119 113 109 106 110 109 111 117 113 112 115 115 116
354 32 38 70 80 49 298 270 104 217 218 112 96 104 53 66 65 86 30 147 137 134 132 131 136 129 135 137 143 146 143 143 141 137 135 135 132 131 126 120 120 122 125 127 120 123 125 125 128
332 104 77 85 85 157 196 261 215 330 17 36 90 74 77 129 28 94 267 151 135 137 137 136 138 138 141 145 147 148 148 148 150 147 145 143 142 145 144 139 135 136 137 143 133 132 134 129 138
30 15 30 76 293 258 205 232 221 273 16 24 136 59 33 309 78 61 133 126 128 134 146 152 151 151 147 151 154 154 156 158 157 161 154 150 151 150 149 142 138 138 137 138 131 138 138 137 144
41 65 59 50 295 276 13 321 359 56 69 29 68 89 91 353 104 88 112 142 135 131 143 190 160 157 156 158 160 161 165 165 167 169 163 158 157 156 156 155 155 156 161 139 137 143 152 145 144
24 93 59 61 317 295 354 30 63 56 32 43 67 87 59 1 34 67 127 150 156 152 152 161 173 165 162 166 163 166 173 173 172 174 169 169 166 165 163 164 165 165 171 149 155 159 161 161 155
109 76 198 250 258 21 339 336 57 52 46 10 106 100 80 1 329 53 97 88 110 129 139 155 170 177 168 157 155 169 185 187 178 176 177 177 173 170 170 174 176 170 162 160 166 169 172 176 161
106 90 303 323 194 122 331 7 357 48 14 318 47 63 60 305 348 39 55 36 27 20 39 149 168 168 165 171 170 177 193 205 200 178 174 174 177 177 181 181 185 178 173 174 174 177 183 188 173
108 65 266 262 78 292 347 35 337 291 49 53 57 78 241 305 35 55 54 45 39 31 17 351 327 196 170 179 188 178 197 241 252 210 174 164 184 191 191 193 189 185 182 183 182 180 187 191 188
101 141 216 202 141 137 57 77 324 27 19 49 32 10 36 60 63 62 50 44 42 28 23 19 359 329 303 229 186 181 187 198 236 268 222 188 185 195 196 196 198 193 186 187 188 187 188 187 195
247 216 231 243 150 150 141 68 103 49 58 251 121 91 57 60 56 57 55 47 44 36 28 20 16 18 12 344 318 266 187 174 196 229 244 253 206 197 208 200 201 196 197 192 185 183 191 199 198
315 278 250 226 157 147 171 145 201 169 205 182 152 85 73 63 56 56 53 46 33 31 25 20 20 16 11 3 0 326 303 218 201 198 203 221 243 223 201 204 203 196 190 191 188 190 191 200 210
191 336 333 329 349 217 172 196 199 234 161 184 73 71 69 69 63 56 55 52 47 39 22 21 18 16 7 7 356 352 344 295 256 215 210 203 221 243 230 206 199 205 194 195 195 199 203 205 209
298 290 288 297 298 307 300 178 103 234 179 97 82 77 73 67 61 60 45 39 41 39 31 18 25 16 5 6 358 354 345 340 310 260 230 216 211 215 220 219 209 208 206 203 197 199 205 210 206
297 330 337 273 234 225 141 337 184 182 152 96 85 80 76 69 60 56 55 52 43 44 34 29 22 11 10 7 359 351 344 334 335 318 271 236 220 217 220 222 224 210 200 206 205 207 214 219 215
346 35 353 290 138 208 112 256 58 27 145 101 93 84 79 67 64 61 56 55 49 51 45 35 27 18 6 5 358 345 343 341 333 332 327 288 242 235 224 219 218 220 206 198 210 198 212 224 219
357 232 202 306 28 113 122 210 218 16 109 99 94 95 87 77 64 54 51 45 38 34 30 27 23 16 8 5 352 346 338 338 334 331 329 331 318 281 243 236 239 214 206 206 208 212 200 207 222
224 236 323 224 194 60 141 225 41 53 107 105 94 90 88 80 67 63 62 54 47 39 31 19 18 14 6 4 356 345 342 339 331 337 332 339 332 333 327 290 249 226 211 215 207 223 216 211 208
249 241 256 275 265 162 205 215 271 108 102 114 111 101 94 91 95 69 64 54 50 39 33 20 11 6 8 6 357 353 347 332 336 330 336 331 329 332 326 321 306 258 233 230 209 215 220 224 214
219 269 290 286 52 107 143 239 268 111 92 107 118 110 105 100 87 75 66 56 55 46 33 22 13 7 5 4 356 345 332 327 325 328 325 326 330 325 318 311 303 307 280 236 231 214 220 226 211
230 185 226 221 333 63 170 191 158 71 90 84 65 85 95 97 86 80 75 67 54 41 33 20 7 358 1 355 349 345 329 328 333 331 325 325 324 321 314 308 308 295 296 272 247 228 216 221 224
243 135 116 78 68 240 54 283 241 142 107 88 69 52 59 54 68 74 80 66 57 46 32 13 4 356 4 353 356 352 343 333 325 320 318 321 319 323 318 310 305 296 282 285 261 244 234 223 217
182 104 107 170 131 70 202 251 284 125 123 134 123 70 49 49 70 65 51 46 49 34 14 351 344 354 355 358 356 349 335 324 322 318 320 321 318 322 320 321 315 309 312 289 277 253 255 222 223
153 108 22 46 109 279 208 172 223 249 166 139 89 66 51 44 44 60 54 42 48 13 342 294 333 356 357 360 348 344 339 330 328 327 320 320 317 317 319 318 314 301 294 288 284 255 236 255 228
102 74 339 325 304 230 187 159 293 76 121 134 142 113 73 52 43 78 57 39 42 4 355 358 2 359 358 354 343 338 332 329 325 325 322 317 312 315 316 316 315 308 301 292 277 270 239 228 233
181 156 164 230 216 273 334 169 222 155 119 140 145 145 117 67 58 106 75 74 22 355 356 357 352 353 345 344 334 325 320 321 322 324 316 313 311 308 311 310 309 307 301 298 272 265 243 214 224
206 164 173 120 302 340 165 90 339 180 168 162 157 156 133 105 75 101 94 77 24 9 353 356 356 341 333 331 332 326 327 321 324 326 316 318 312 306 309 309 307 308 301 298 275 254 229 199 194
134 161 74 15 212 235 270 180 216 195 193 165 173 156 142 75 74 92 112 55 23 8 344 351 349 327 314 309 313 325 320 322 316 320 318 321 317 312 312 312 308 317 342 331 285 249 218 197 192
124 141 144 139 153 198 239 254 217 185 176 170 158 145 119 70 76 83 83 38 6 329 334 329 301 295 293 288 286 309 326 329 320 315 326 323 316 318 316 318 314 337 353 350 350 307 221 187 167
174 181 159 136 238 222 148 258 90 129 149 144 134 115 101 104 120 100 122 193 32 0 355 350 320 316 311 309 297 300 309 329 330 325 323 325 321 318 318 323 325 352 8 1 342 3 343 184 149